Tracking 29528 objects as of 12-Sep-2024
HD Live streaming from Space Station
objects crossing your sky now

STARLINK-4742

Track STARLINK-4742 now!
10-day predictions
STARLINK-4742 is classified as:


NORAD ID: 53795
Int'l Code: 2022-111Y
Perigee: 546.0 km
Apogee: 547.7 km
Inclination: 53.2 °
Period: 95.4 minutes
Semi major axis: 6917 km
RCS: Unknown
Launch date: September 11, 2022
Source: United States (US)
Launch site: AIR FORCE EASTERN TEST RANGE (AFETR)
Your satellite tracking list
Your tracking list is empty




NASA's NSSDC Master Catalog

Two Line Element Set (TLE):
1 53795U 22111Y   24256.14355649  .00001280  00000-0  98482-4 0  9998
2 53795  53.2158 193.8747 0001192  79.0121 281.1005 15.08851664110831
Source of the keplerian elements: AFSPC